Change the Weather History Date:

Monday, May 13, 2013

  Actual Average (KVPZ) Record (KVPZ)
Temperature  
Mean Temperature 44 °F 58 °F  
Max Temperature 60 °F 70 °F 85 °F (2005)
Min Temperature 29 °F 47 °F 32 °F (2001)
Degree Days  
Heating Degree Days 21 8  
Month to date heating degree days 120  
Since 1 July heating degree days 6179  
Cooling Degree Days 0 1  
Month to date cooling degree days 9  
Year to date cooling degree days 14  
Moisture  
Dew Point 27 °F    
Average Humidity 50    
Maximum Humidity 90    
Minimum Humidity 24    
Precipitation  
Precipitation 0.00 in 0.12 in 1.77 in (2009)
Month to date precipitation 1.66  
Year to date precipitation 10.84  
Sea Level Pressure  
Sea Level Pressure 30.13 in    
Wind  
Wind Speed 3 mph (East)    
Max Wind Speed 13 mph    
Max Gust Speed 23 mph    
Visibility 10 miles    
Events      
T = Trace of Precipitation, MM = Missing Value Source: NWS Daily Summary

Daily Weather History Graph

Daily Weather History Graph

Search for Another Location

Airport or City:

Trip Planner

Search our weather history database for the weather conditions in past years. The results will help you decide how hot, cold, wet, or windy it might be!

Date:

Astronomy

May. 13, 2013 Rise Set
Actual Time 5:29 AM CDT 7:57 PM CDT
Civil Twilight 4:57 AM CDT 8:29 PM CDT
Nautical Twilight 4:18 AM CDT 9:08 PM CDT
Astronomical Twilight 3:35 AM CDT 9:52 PM CDT
Moon 8:14 AM CDT (5/13) 11:06 PM CDT (5/13)
Length of Visible Light 15h 31m
Length of Day
14h 28m
Waxing Crescent, 12% of the Moon is Illuminated
May 13
Waxing Crescent
May 17
First Quarter
May 24
Full
May 31
Last Quarter
Jun 8
New

Hourly Weather History & Observations

Time (CDT) Temp. Windchill Dew Point Humidity Pressure Visibility Wind Dir Wind Speed Gust Speed Precip Events Conditions
12:15 AM 40.1 °F 38.0 °F 29.8 °F 67% 30.11 in 10.0 mi South 3.5 mph - N/A   Overcast
12:35 AM 40.1 °F - 31.3 °F 71% 30.11 in 10.0 mi Calm Calm - N/A   Overcast
12:55 AM 40.1 °F - 30.9 °F 70% 30.11 in 10.0 mi Calm Calm - N/A   Overcast
1:15 AM 39.4 °F 37.2 °F 31.3 °F 73% 30.11 in 10.0 mi ESE 3.5 mph - N/A   Overcast
1:35 AM 39.2 °F 34.2 °F 30.7 °F 72% 30.12 in 10.0 mi ENE 6.9 mph - N/A   Overcast
1:55 AM 39.4 °F 36.1 °F 30.2 °F 70% 30.12 in 10.0 mi ENE 4.6 mph - N/A   Overcast
2:15 AM 39.6 °F - 30.0 °F 69% 30.13 in 10.0 mi Calm Calm - N/A   Overcast
2:35 AM 38.5 °F - 30.0 °F 72% 30.13 in 10.0 mi Calm Calm - N/A   Mostly Cloudy
2:55 AM 37.4 °F - 30.2 °F 75% 30.13 in 10.0 mi Calm Calm - N/A   Mostly Cloudy
3:15 AM 37.4 °F - 29.7 °F 74% 30.13 in 10.0 mi Calm Calm - N/A   Scattered Clouds
3:35 AM 34.7 °F - 30.6 °F 85% 30.13 in 10.0 mi Calm Calm - N/A   Clear
3:55 AM 32.9 °F - 28.9 °F 85% 30.13 in 10.0 mi Calm Calm - N/A   Clear
4:15 AM 32.0 °F - 29.3 °F 90% 30.13 in 10.0 mi Calm Calm - N/A   Clear
4:35 AM 32.4 °F - 29.5 °F 89% 30.13 in 10.0 mi Calm Calm - N/A   Clear
4:55 AM 31.8 °F - 27.9 °F 85% 30.12 in 10.0 mi Calm Calm - N/A   Scattered Clouds
5:15 AM 30.2 °F - 26.8 °F 87% 30.12 in 10.0 mi Calm Calm - N/A   Clear
5:35 AM 31.1 °F 27.7 °F 28.6 °F 90% 30.12 in 10.0 mi NE 3.5 mph - N/A   Clear
5:55 AM 29.7 °F - 27.1 °F 90% 30.13 in 10.0 mi Calm Calm - N/A   Clear
6:15 AM 32.2 °F - 29.3 °F 89% 30.14 in 10.0 mi Calm Calm - N/A   Clear
6:35 AM 34.7 °F 31.8 °F 31.8 °F 89% 30.15 in 10.0 mi NE 3.5 mph - N/A   Clear
6:55 AM 38.3 °F 33.9 °F 31.5 °F 76% 30.16 in 10.0 mi ENE 5.8 mph - N/A   Clear
7:15 AM 39.2 °F 35.0 °F 30.7 °F 72% 30.16 in 10.0 mi East 5.8 mph - N/A   Clear
7:35 AM 41.9 °F 36.9 °F 29.3 °F 61% 30.17 in 10.0 mi East 8.1 mph - N/A   Clear
7:55 AM 42.8 °F 39.3 °F 28.2 °F 56% 30.17 in 10.0 mi East 5.8 mph - N/A   Clear
8:15 AM 43.9 °F 41.3 °F 27.9 °F 53% 30.18 in 10.0 mi East 4.6 mph - N/A   Clear
8:35 AM 44.8 °F 41.6 °F 27.5 °F 51% 30.19 in 10.0 mi SE 5.8 mph - N/A   Clear
8:55 AM 45.5 °F - 27.0 °F 48% 30.19 in 10.0 mi Calm Calm - N/A   Clear
9:15 AM 46.0 °F 43.9 °F 27.7 °F 49% 30.19 in 10.0 mi SE 4.6 mph - N/A   Clear
9:35 AM 46.8 °F - 27.1 °F 46% 30.19 in 10.0 mi Calm Calm - N/A   Clear
9:55 AM 48.4 °F - 27.5 °F 44% 30.19 in 10.0 mi Calm Calm - N/A   Clear
10:15 AM 49.3 °F - 27.9 °F 44% 30.19 in 10.0 mi Calm Calm - N/A   Clear
10:35 AM 50.7 °F - 27.1 °F 40% 30.19 in 10.0 mi West 3.5 mph - N/A   Clear
10:55 AM 52.0 °F - 26.6 °F 37% 30.19 in 10.0 mi Calm Calm - N/A   Clear
11:15 AM 54.0 °F - 26.8 °F 35% 30.19 in 10.0 mi NW 5.8 mph - N/A   Scattered Clouds
11:35 AM 54.5 °F - 21.6 °F 28% 30.18 in 10.0 mi NNW 12.7 mph 17.3 mph N/A   Scattered Clouds
11:55 AM 55.0 °F - 22.3 °F 28% 30.18 in 10.0 mi NW 8.1 mph 16.1 mph N/A   Clear
12:15 PM 55.4 °F - 22.1 °F 27% 30.18 in 10.0 mi NNW 11.5 mph 18.4 mph N/A   Clear
12:35 PM 55.0 °F - 19.4 °F 25% 30.18 in 10.0 mi NW 12.7 mph 21.9 mph N/A   Clear
12:55 PM 55.4 °F - 21.0 °F 26% 30.18 in 10.0 mi NW 12.7 mph 20.7 mph N/A   Clear
1:15 PM 55.8 °F - 21.2 °F 26% 30.18 in 10.0 mi NW 10.4 mph 23.0 mph N/A   Clear
1:35 PM 55.4 °F - 21.0 °F 26% 30.17 in 10.0 mi NNW 9.2 mph 17.3 mph N/A   Clear
1:55 PM 56.3 °F - 23.9 °F 29% 30.16 in 10.0 mi NNW 9.2 mph - N/A   Clear
2:15 PM 57.0 °F - 24.8 °F 29% 30.16 in 10.0 mi NNW 8.1 mph - N/A   Clear
2:35 PM 57.0 °F - 24.8 °F 29% 30.15 in 10.0 mi NNW 5.8 mph - N/A   Clear
3:35 PM 59.0 °F - 26.1 °F 28% 30.13 in 10.0 mi NNW 4.6 mph - N/A   Clear
3:55 PM 59.0 °F - 24.3 °F 26% 30.12 in 10.0 mi Calm Calm - N/A   Clear
4:15 PM 59.2 °F - 25.3 °F 27% 30.11 in 10.0 mi WSW 3.5 mph - N/A   Clear
4:35 PM 59.2 °F - 25.2 °F 27% 30.11 in 10.0 mi NW 3.5 mph - N/A   Clear
4:55 PM 59.4 °F - 24.4 °F 26% 30.11 in 10.0 mi Calm Calm - N/A   Clear
5:15 PM 59.9 °F - 23.7 °F 25% 30.10 in 10.0 mi Calm Calm - N/A   Clear
5:35 PM 59.9 °F - 23.2 °F 24% 30.10 in 10.0 mi Calm Calm - N/A   Clear
5:55 PM 59.0 °F - 23.2 °F 25% 30.09 in 10.0 mi Calm Calm - N/A   Clear
6:35 PM 58.1 °F - 25.2 °F 28% 30.10 in 10.0 mi NE 4.6 mph - N/A   Clear
7:15 PM 57.2 °F - 26.6 °F 31% 30.09 in 10.0 mi ENE 4.6 mph - N/A   Clear
7:35 PM 56.1 °F - 26.8 °F 32% 30.09 in 10.0 mi East 4.6 mph - N/A   Clear
7:55 PM 53.8 °F - 28.2 °F 37% 30.09 in 10.0 mi ESE 5.8 mph - N/A   Clear
8:15 PM 52.0 °F - 29.3 °F 42% 30.09 in 10.0 mi ESE 3.5 mph - N/A   Clear
8:35 PM 51.1 °F - 30.4 °F 45% 30.08 in 10.0 mi ESE 4.6 mph - N/A   Scattered Clouds
8:55 PM 52.3 °F - 29.3 °F 41% 30.09 in 10.0 mi ESE 4.6 mph - N/A   Mostly Cloudy
9:15 PM 52.0 °F - 29.7 °F 42% 30.09 in 10.0 mi ESE 4.6 mph - N/A   Overcast
9:35 PM 52.7 °F - 27.3 °F 38% 30.08 in 10.0 mi SE 4.6 mph - N/A   Overcast
9:55 PM 52.7 °F - 26.8 °F 37% 30.09 in 10.0 mi SE 3.5 mph - N/A   Overcast
10:15 PM 52.7 °F - 26.1 °F 36% 30.09 in 7.0 mi SE 4.6 mph - N/A   Mostly Cloudy
10:35 PM 52.2 °F - 26.4 °F 37% 30.09 in 7.0 mi SE 5.8 mph - N/A   Mostly Cloudy
10:55 PM 52.2 °F - 26.8 °F 37% 30.09 in 10.0 mi Calm Calm - N/A   Overcast
11:15 PM 52.0 °F - 25.5 °F 36% 30.08 in 7.0 mi SSE 4.6 mph - N/A   Overcast
11:35 PM 52.0 °F - 24.3 °F 34% 30.08 in 7.0 mi SSE 4.6 mph - N/A   Overcast
11:55 PM 52.0 °F - 23.5 °F 33% 30.07 in 7.0 mi SSE 6.9 mph - N/A   Overcast